Key West NAF, FL

1:36 AM EDT on May 23, 2017 (GMT -0400)
Key West Naval Air Station

Weather History for KNQX - October, 2013

Change the Weather History Date:

Sunday, October 6, 2013

  Actual Average Record
Temperature  
Mean Temperature 82 °F -  
Max Temperature 87 °F 86 °F 92 °F (1962)
Min Temperature 78 °F 77 °F 70 °F (1992)
Cooling Degree Days 18    
Growing Degree Days 32 (Base 50)    
Moisture  
Dew Point 70 °F    
Average Humidity 70    
Maximum Humidity 82    
Minimum Humidity 20    
Precipitation  
Precipitation 0.00 in - - ()
Sea Level Pressure  
Sea Level Pressure 29.92 in    
Wind  
Wind Speed 5 mph (SE)    
Max Wind Speed 9 mph    
Max Gust Speed -    
Visibility 10 miles    
Events      
Averages and records for this station are not official NWS values.
T = Trace of Precipitation, MM = Missing Value Source: NWS Daily Summary

Daily Weather History Graph

Daily Weather History Graph

Search for Another Location

Airport or City:

Trip Planner

Search our weather history database for the weather conditions in past years. The results will help you decide how hot, cold, wet, or windy it might be!

Date:

Astronomy

Oct. 06, 2013 Rise Set
Actual Time 7:20 AM EDT 7:08 PM EDT
Civil Twilight 6:58 AM EDT 7:31 PM EDT
Nautical Twilight 6:31 AM EDT 7:57 PM EDT
Astronomical Twilight 6:05 AM EDT 8:23 PM EDT
Moon 8:50 AM EDT (10/6) 8:22 PM EDT (10/6)
Length of Visible Light 12h 33m
Length of Day
11h 47m
Waxing Crescent, 3% of the Moon is Illuminated
Oct 6
Waxing Crescent
Oct 11
First Quarter
Oct 18
Full
Oct 26
Last Quarter
Nov 3
New

Hourly Weather History & Observations

Time (EDT) Temp. Heat Index Dew Point Humidity Pressure Visibility Wind Dir Wind Speed Gust Speed Precip Events Conditions
12:53 AM 81.0 °F 84.9 °F 71.1 °F 72% 29.97 in 10.0 mi East 9.2 mph - N/A   Partly Cloudy
1:53 AM 81.0 °F 84.9 °F 71.1 °F 72% 29.95 in 10.0 mi ESE 5.8 mph - N/A   Clear
2:53 AM 80.1 °F 83.6 °F 71.1 °F 74% 29.92 in 10.0 mi East 4.6 mph - N/A   Clear
3:53 AM 79.0 °F - 71.1 °F 77% 29.91 in 10.0 mi East 4.6 mph - N/A   Clear
4:53 AM 79.0 °F - 71.1 °F 77% 29.89 in 10.0 mi East 5.8 mph - N/A   Clear
5:53 AM 78.1 °F - 71.1 °F 79% 29.90 in 10.0 mi ESE 5.8 mph - N/A   Clear
6:03 AM 78.8 °F - 71.6 °F 78% 29.91 in 10.0 mi ESE 3.5 mph - N/A   Scattered Clouds
6:53 AM 78.1 °F - 71.1 °F 79% 29.92 in 10.0 mi ESE 3.5 mph - N/A   Scattered Clouds
7:53 AM 79.0 °F - 72.0 °F 79% 29.92 in 10.0 mi Calm Calm - N/A   Mostly Cloudy
8:53 AM 82.0 °F 86.7 °F 72.0 °F 71% 29.94 in 10.0 mi Calm Calm - N/A   Mostly Cloudy
9:53 AM 82.9 °F 87.0 °F 70.0 °F 65% 29.96 in 10.0 mi ESE 3.5 mph - N/A   Mostly Cloudy
10:53 AM 84.9 °F 90.1 °F 71.1 °F 63% 29.96 in 10.0 mi South 4.6 mph - N/A   Mostly Cloudy
11:53 AM 86.0 °F 91.5 °F 71.1 °F 61% 29.96 in 10.0 mi SSE 4.6 mph - N/A   Scattered Clouds
12:53 PM 86.0 °F 92.2 °F 72.0 °F 63% 29.94 in 10.0 mi South 6.9 mph - N/A   Scattered Clouds
1:53 PM 87.1 °F 93.6 °F 72.0 °F 61% 29.92 in 10.0 mi SSE 6.9 mph - N/A   Scattered Clouds
2:53 PM 86.0 °F 93.8 °F 73.9 °F 67% 29.90 in 10.0 mi South 8.1 mph - N/A   Scattered Clouds
3:53 PM 84.0 °F 90.2 °F 73.0 °F 69% 29.89 in 10.0 mi SE 3.5 mph - N/A   Scattered Clouds
4:53 PM 84.0 °F 89.6 °F 72.0 °F 67% 29.89 in 10.0 mi SE 3.5 mph - N/A   Mostly Cloudy
5:53 PM 82.9 °F 88.0 °F 72.0 °F 69% 29.91 in 10.0 mi Calm Calm - N/A   Mostly Cloudy
6:53 PM 82.9 °F 89.4 °F 73.9 °F 74% 29.90 in 10.0 mi Calm Calm - N/A   Scattered Clouds
7:53 PM 82.0 °F 86.7 °F 72.0 °F 71% 29.91 in 10.0 mi Calm Calm - N/A   Scattered Clouds
8:53 PM 80.1 °F 84.5 °F 73.9 °F 81% 29.92 in 10.0 mi Calm Calm - N/A   Scattered Clouds
9:53 PM 80.1 °F - 35.1 °F 20% 29.92 in 10.0 mi Calm Calm - N/A   Scattered Clouds
10:53 PM 79.0 °F - 73.0 °F 82% 29.92 in 10.0 mi SE 4.6 mph - N/A   Clear
11:53 PM 80.1 °F 83.8 °F 72.0 °F 76% 29.91 in 10.0 mi SE 4.6 mph - N/A   Clear